FW2015 Weather Reports


time (UTC)temp
C
wind
direction
speed
KPH
gust
KPH
rain 1hr
cm
rain 24hr
cm
rain mn
cm
humidity
%
barometer
mb
20260506211603 15 226 12.9 32.2 0.00 0.00 0.00 90 1006.6
20260506210046 15 223 14.5 32.2 0.00 0.00 0.00 89 1006.6
20260506204554 15 228 16.1 32.2 0.00 0.00 0.00 89 1006.5
20260506203047 15 225 16.1 33.8 0.00 0.00 0.00 88 1006.6
20260506201556 15 250 14.5 27.4 0.00 0.00 0.00 88 1006.6
20260506200041 15 209 14.5 24.1 0.00 0.00 0.00 88 1007.0
20260506194546 15 259 12.9 30.6 0.00 0.00 0.00 89 1007.1
20260506193040 14 218 14.5 32.2 0.00 0.00 0.00 91 1007.2
20260506191544 14 202 14.5 33.8 0.00 0.00 0.00 92 1007.1
20260506190035 14 200 14.5 37.0 0.00 0.00 0.00 94 1007.5
20260506184533 14 249 12.9 32.2 0.00 0.00 0.00 93 1007.7
20260506183040 13 211 20.9 37.0 0.00 0.00 0.00 92 1007.9
20260506181529 13 144 16.1 37.0 0.00 0.00 0.00 92 1008.0
20260506180028 13 197 19.3 37.0 0.00 0.00 0.00 91 1008.1
20260506174526 14 229 17.7 41.8 0.00 0.00 0.00 91 1008.6
20260506173024 14 184 16.1 33.8 0.00 0.00 0.00 90 1008.5
20260506171529 15 241 24.1 37.0 0.00 0.00 0.00 88 1008.6
20260506170020 14 245 17.7 37.0 0.00 0.00 0.00 90 1008.9
20260506164519 14 175 20.9 37.0 0.00 0.00 0.00 89 1009.3
20260506163018 14 212 20.9 35.4 0.00 0.00 0.00 90 1009.6
20260506161516 13 235 17.7 32.2 0.00 0.00 0.00 90 1009.8
20260506160016 13 202 11.3 30.6 0.00 0.00 0.00 90 1010.0
20260506154512 13 252 17.7 32.2 0.00 0.00 0.00 90 1010.1
20260506153012 13 162 16.1 35.4 0.00 0.00 0.00 89 1010.0
20260506151511 14 158 11.3 32.2 0.00 0.00 0.00 89 1010.2
20260506150010 14 231 12.9 32.2 0.00 0.00 0.00 88 1010.3
20260506144509 15 212 16.1 32.2 0.00 0.00 0.00 87 1010.5
20260506143020 14 194 19.3 35.4 0.00 0.00 0.00 88 1010.6
20260506141510 14 214 14.5 33.8 0.00 0.00 0.00 89 1010.5
20260506140007 14 219 16.1 35.4 0.00 0.00 0.00 89 1010.4
20260506134510 15 238 20.9 35.4 0.00 0.00 0.00 88 1010.5
20260506133008 15 216 19.3 43.5 0.00 0.00 0.00 87 1010.8
20260506131508 15 214 16.1 37.0 0.00 0.00 0.00 87 1010.8
20260506130011 15 202 19.3 40.2 0.00 0.00 0.00 88 1010.7
20260506124505 15 226 20.9 38.6 0.00 0.00 0.00 88 1010.8
20260506123003 15 243 19.3 40.2 0.00 0.00 0.00 88 1010.7
20260506121600 14 224 17.7 37.0 0.00 0.00 0.00 90 1010.7
20260506120059 14 219 17.7 35.4 0.00 0.00 0.00 90 1010.7
20260506114556 13 195 14.5 37.0 0.00 0.00 0.00 91 1010.8
20260506113055 13 240 14.5 35.4 0.00 0.00 0.00 92 1010.7
20260506111555 13 216 19.3 33.8 0.00 0.00 0.00 92 1010.8
20260506110054 13 217 17.7 38.6 0.00 0.00 0.00 93 1010.7
20260506104553 13 228 16.1 30.6 0.00 0.00 0.00 93 1010.5
20260506103055 13 240 19.3 35.4 0.00 0.00 0.00 94 1010.5
20260506101549 12 218 16.1 33.8 0.00 0.00 0.00 95 1010.5
20260506100047 12 248 12.9 27.4 0.00 0.00 0.00 95 1010.3
20260506094545 12 174 11.3 29.0 0.00 0.00 0.00 95 1010.3
20260506093042 12 219 14.5 25.7 0.00 0.00 0.00 95 1010.4
20260506091540 12 239 12.9 30.6 0.00 0.00 0.00 94 1010.6
20260506090046 12 213 16.1 29.0 0.00 0.00 0.00 94 1010.8
20260506084539 12 169 9.7 27.4 0.00 0.00 0.00 94 1010.9
20260506083032 12 188 12.9 29.0 0.00 0.00 0.00 94 1010.8
20260506081537 13 181 17.7 32.2 0.00 0.00 0.00 94 1010.8
20260506073025 13 302 17.7 35.4 0.00 0.00 0.00 92 1011.1
20260506071523 13 205 17.7 37.0 0.00 0.00 0.00 92 1011.1
20260506061536 13 179 16.1 43.5 0.00 0.00 0.00 90 1010.9
20260506044601 13 210 17.7 29.0 0.00 0.00 0.00 91 1011.5
20260506043105 13 224 17.7 29.0 0.00 0.00 0.00 91 1011.6
20260506041556 13 215 16.1 30.6 0.00 0.00 0.00 90 1011.5
20260506034558 12 274 16.1 33.8 0.00 0.00 0.00 90 1011.6
20260506033052 13 229 16.1 35.4 0.00 0.00 0.00 89 1011.8
20260506031553 13 205 16.1 32.2 0.00 0.00 0.00 89 1011.7
20260506030055 13 172 12.9 29.0 0.00 0.00 0.00 89 1011.7
20260506024558 13 243 19.3 37.0 0.00 0.00 0.00 88 1011.7
20260506023051 13 233 19.3 33.8 0.00 0.00 0.00 87 1011.9
20260506021601 14 203 14.5 37.0 0.00 0.00 0.00 86 1011.8
20260506020048 13 165 14.5 27.4 0.00 0.00 0.00 87 1011.7
20260506014548 13 255 17.7 33.8 0.00 0.00 0.00 86 1011.5
20260506013056 13 219 17.7 32.2 0.00 0.00 0.00 87 1011.5
20260506011601 13 241 17.7 32.2 0.00 0.00 0.00 87 1011.3
20260506010046 13 240 11.3 29.0 0.00 0.00 0.00 87 1011.3
20260506004546 14 214 17.7 38.6 0.00 0.00 0.00 86 1011.2
20260506003147 14 210 20.9 40.2 0.00 0.00 0.00 86 1011.1
20260506001550 13 239 19.3 35.4 0.00 0.00 0.00 86 1011.0
20260506000046 13 218 16.1 33.8 0.00 0.00 0.00 85 1010.9
20260505234544 14 148 19.3 33.8 0.00 0.00 0.00 84 1010.7
20260505233044 15 203 16.1 40.2 0.00 0.00 0.00 83 1010.8
20260505231601 15 237 17.7 38.6 0.00 0.00 0.00 81 1010.5
20260505230043 15 245 17.7 38.6 0.00 0.00 0.00 80 1010.5
20260505224542 15 253 19.3 40.2 0.00 0.00 0.00 79 1010.3
20260505223042 16 244 19.3 43.5 0.00 0.00 0.00 77 1010.3
20260505221542 16 229 22.5 43.5 0.00 0.00 0.00 76 1010.1
20260505220041 16 212 22.5 46.7 0.00 0.00 0.00 77 1010.1
20260505214600 16 188 20.9 45.1 0.00 0.00 0.00 78 1010.0
20260505213039 16 255 24.1 48.3 0.00 0.00 0.00 79 1009.9